User: anonymous   Login
Location: Linz
(48.3300°N, 14.3000°E)
Time: 22:04:56
(UTC+01:00)
Language:

Tiangong 2 - Orbit

View from above orbital plane
View from above orbital plane
View from above satellite
View from above satellite

Ground track
Ground track

The orbit data is extracted from the following two-line orbital elements,

1 41765U 16057A   17324.31547454  .00005348  00000-0  70051-4 0  9999
2 41765  42.7824 147.1691 0004026 257.5112 101.0081 15.59550640 67347
Epoch (UTC): 20 November 2017 07:34:17
Eccentricity: 0.0004026
inclination: 42.7824°
perigee height: 386 km
apogee height: 391 km
right ascension of ascending node: 147.1691°
argument of perigee: 257.5112°
revolutions per day: 15.59550640
mean anomaly at epoch: 101.0081°
orbit number at epoch: 6734

The dashed part of the orbit path shows where the satellite is in the earth's shadow,  

DLR